| time (UTC) | temp C | wind direction | speed KPH | gust KPH | rain 1hr cm | rain 24hr cm | rain mn cm | humidity % | barometer mb |
| 20260506134613 | 25 | 107 | 12.9 | 30.6 | 0.00 | 0.00 | 0.00 | 40 | 1003.5 |
| 20260506133112 | 25 | 141 | 12.9 | 37.0 | 0.00 | 0.00 | 0.00 | 40 | 1003.5 |
| 20260506131614 | 25 | 135 | 11.3 | 29.0 | 0.00 | 0.00 | 0.00 | 39 | 1003.8 |
| 20260506130112 | 23 | 119 | 11.3 | 27.4 | 0.00 | 0.00 | 0.00 | 44 | 1003.9 |
| 20260506124612 | 22 | 148 | 12.9 | 29.0 | 0.00 | 0.00 | 0.00 | 43 | 1004.0 |
| 20260506123112 | 22 | 96 | 8.0 | 24.1 | 0.00 | 0.00 | 0.00 | 45 | 1004.4 |
| 20260506121612 | 22 | 103 | 11.3 | 33.8 | 0.00 | 0.00 | 0.00 | 46 | 1004.6 |
| 20260506120111 | 22 | 155 | 11.3 | 29.0 | 0.00 | 0.00 | 0.00 | 45 | 1004.7 |
| 20260506114611 | 22 | 116 | 9.7 | 27.4 | 0.00 | 0.00 | 0.00 | 46 | 1004.8 |
| 20260506113111 | 24 | 140 | 11.3 | 27.4 | 0.00 | 0.00 | 0.00 | 45 | 1005.1 |
| 20260506111611 | 23 | 82 | 12.9 | 35.4 | 0.00 | 0.00 | 0.00 | 49 | 1005.2 |
| 20260506110111 | 23 | 148 | 11.3 | 33.8 | 0.00 | 0.00 | 0.00 | 45 | 1005.4 |
| 20260506104611 | 23 | 146 | 12.9 | 35.4 | 0.00 | 0.00 | 0.00 | 44 | 1005.9 |
| 20260506103110 | 23 | 94 | 12.9 | 27.4 | 0.00 | 0.00 | 0.00 | 47 | 1005.9 |
| 20260506101611 | 22 | 121 | 11.3 | 24.1 | 0.00 | 0.00 | 0.00 | 47 | 1006.0 |
| 20260506100110 | 23 | 94 | 9.7 | 25.7 | 0.00 | 0.00 | 0.00 | 47 | 1006.1 |
| 20260506094610 | 23 | 120 | 9.7 | 27.4 | 0.00 | 0.00 | 0.00 | 45 | 1006.2 |
| 20260506093110 | 23 | 101 | 9.7 | 24.1 | 0.00 | 0.00 | 0.00 | 46 | 1006.4 |
| 20260506091610 | 21 | 88 | 11.3 | 22.5 | 0.00 | 0.00 | 0.00 | 52 | 1006.6 |
| 20260506090110 | 22 | 89 | 9.7 | 20.9 | 0.00 | 0.00 | 0.00 | 50 | 1006.5 |
| 20260506084616 | 23 | 126 | 8.0 | 20.9 | 0.00 | 0.00 | 0.00 | 48 | 1006.5 |
| 20260506083114 | 22 | 57 | 6.4 | 16.1 | 0.00 | 0.00 | 0.00 | 46 | 1006.6 |
| 20260506081616 | 22 | 107 | 6.4 | 14.5 | 0.00 | 0.00 | 0.00 | 47 | 1006.8 |
| 20260506080115 | 22 | 92 | 4.8 | 12.9 | 0.00 | 0.00 | 0.00 | 50 | 1006.8 |
| 20260506073114 | 21 | 110 | 3.2 | 12.9 | 0.00 | 0.00 | 0.00 | 52 | 1006.9 |
| 20260506071615 | 21 | 71 | 3.2 | 9.7 | 0.00 | 0.00 | 0.00 | 52 | 1007.0 |
| 20260506070114 | 20 | 184 | 3.2 | 8.0 | 0.00 | 0.00 | 0.00 | 56 | 1007.1 |
| 20260506061613 | 17 | 129 | 1.6 | 9.7 | 0.00 | 0.00 | 0.00 | 65 | 1007.2 |
| 20260506060113 | 16 | 78 | 1.6 | 4.8 | 0.00 | 0.00 | 0.00 | 67 | 1007.2 |
| 20260506050114 | 15 | 77 | 1.6 | 8.0 | 0.00 | 0.00 | 0.00 | 73 | 1007.3 |
| 20260506044612 | 14 | 63 | 1.6 | 6.4 | 0.00 | 0.00 | 0.00 | 74 | 1007.1 |
| 20260506043113 | 14 | 33 | 1.6 | 4.8 | 0.00 | 0.00 | 0.00 | 77 | 1007.0 |
| 20260506041612 | 13 | 85 | 1.6 | 6.4 | 0.00 | 0.00 | 0.00 | 77 | 1007.0 |
| 20260506040112 | 13 | 30 | 3.2 | 11.3 | 0.00 | 0.00 | 0.00 | 77 | 1006.8 |
| 20260506034611 | 13 | 288 | 3.2 | 9.7 | 0.00 | 0.00 | 0.00 | 78 | 1006.7 |
| 20260506033113 | 13 | 313 | 1.6 | 8.0 | 0.00 | 0.00 | 0.00 | 78 | 1006.7 |
| 20260506031611 | 13 | 330 | 1.6 | 6.4 | 0.00 | 0.00 | 0.00 | 77 | 1006.7 |
| 20260506030111 | 14 | 14 | 1.6 | 8.0 | 0.00 | 0.00 | 0.00 | 77 | 1006.9 |
| 20260506024611 | 14 | 53 | 1.6 | 8.0 | 0.00 | 0.00 | 0.00 | 76 | 1006.8 |
| 20260506023112 | 14 | 280 | 3.2 | 8.0 | 0.00 | 0.00 | 0.00 | 76 | 1006.7 |
| 20260506021611 | 15 | 211 | 1.6 | 4.8 | 0.00 | 0.00 | 0.00 | 75 | 1006.6 |
| 20260506020111 | 15 | 148 | 1.6 | 6.4 | 0.00 | 0.00 | 0.00 | 75 | 1006.5 |
| 20260506014610 | 15 | 22 | 1.6 | 4.8 | 0.00 | 0.00 | 0.00 | 74 | 1006.4 |
| 20260506013110 | 15 | 86 | 1.6 | 6.4 | 0.00 | 0.00 | 0.00 | 73 | 1006.3 |
| 20260506011610 | 15 | 179 | 1.6 | 8.0 | 0.00 | 0.00 | 0.00 | 71 | 1006.1 |
| 20260506010110 | 16 | 71 | 1.6 | 9.7 | 0.00 | 0.00 | 0.00 | 70 | 1006.0 |
| 20260506004610 | 16 | 113 | 1.6 | 6.4 | 0.00 | 0.00 | 0.00 | 69 | 1005.9 |
| 20260506003111 | 16 | 57 | 1.6 | 6.4 | 0.00 | 0.00 | 0.00 | 68 | 1005.7 |
| 20260506001610 | 16 | 96 | 1.6 | 4.8 | 0.00 | 0.00 | 0.00 | 67 | 1005.5 |
| 20260506000109 | 16 | 287 | 1.6 | 4.8 | 0.00 | 0.00 | 0.00 | 66 | 1005.4 |
| 20260505234609 | 16 | 67 | 1.6 | 6.4 | 0.00 | 0.00 | 0.00 | 67 | 1005.1 |
| 20260505233109 | 16 | 130 | 1.6 | 6.4 | 0.00 | 0.00 | 0.00 | 66 | 1005.1 |
| 20260505231615 | 16 | 42 | 1.6 | 8.0 | 0.00 | 0.00 | 0.00 | 68 | 1005.0 |
| 20260505230114 | 15 | 57 | 1.6 | 6.4 | 0.00 | 0.00 | 0.00 | 70 | 1004.7 |
| 20260505224614 | 15 | 244 | 1.6 | 6.4 | 0.00 | 0.00 | 0.00 | 70 | 1004.6 |
| 20260505223114 | 14 | 151 | 1.6 | 4.8 | 0.00 | 0.00 | 0.00 | 71 | 1004.4 |
| 20260505221614 | 14 | 101 | 1.6 | 6.4 | 0.00 | 0.00 | 0.00 | 70 | 1004.2 |
| 20260505220113 | 14 | 5 | 3.2 | 6.4 | 0.00 | 0.00 | 0.00 | 68 | 1004.2 |
| 20260505214613 | 14 | 308 | 1.6 | 4.8 | 0.00 | 0.00 | 0.00 | 68 | 1004.2 |
| 20260505213113 | 14 | 311 | 1.6 | 3.2 | 0.00 | 0.00 | 0.00 | 67 | 1004.1 |
| 20260505211613 | 14 | 297 | 1.6 | 3.2 | 0.00 | 0.00 | 0.00 | 66 | 1003.9 |
| 20260505210113 | 15 | 294 | 0.0 | 3.2 | 0.00 | 0.00 | 0.00 | 65 | 1004.0 |
| 20260505204613 | 15 | 157 | 0.0 | 4.8 | 0.00 | 0.00 | 0.00 | 63 | 1003.7 |
| 20260505203112 | 16 | 122 | 1.6 | 6.4 | 0.00 | 0.00 | 0.00 | 61 | 1003.5 |
| 20260505201613 | 16 | 75 | 3.2 | 8.0 | 0.00 | 0.00 | 0.00 | 59 | 1003.3 |
| 20260505200112 | 16 | 102 | 3.2 | 9.7 | 0.00 | 0.00 | 0.00 | 58 | 1003.4 |
| 20260505194612 | 16 | 106 | 3.2 | 12.9 | 0.00 | 0.00 | 0.00 | 57 | 1003.3 |
| 20260505193112 | 17 | 136 | 4.8 | 14.5 | 0.00 | 0.00 | 0.00 | 56 | 1003.2 |
| 20260505191613 | 17 | 94 | 4.8 | 12.9 | 0.00 | 0.00 | 0.00 | 55 | 1003.2 |
| 20260505190112 | 17 | 130 | 6.4 | 20.9 | 0.00 | 0.00 | 0.00 | 53 | 1003.2 |
| 20260505184612 | 17 | 64 | 6.4 | 17.7 | 0.00 | 0.00 | 0.00 | 53 | 1003.1 |
| 20260505183111 | 18 | 133 | 8.0 | 17.7 | 0.00 | 0.00 | 0.00 | 52 | 1003.1 |
| 20260505181611 | 18 | 120 | 8.0 | 24.1 | 0.00 | 0.00 | 0.00 | 50 | 1003.1 |
| 20260505180111 | 19 | 153 | 8.0 | 22.5 | 0.00 | 0.00 | 0.00 | 48 | 1003.1 |
| 20260505174611 | 20 | 151 | 9.7 | 27.4 | 0.00 | 0.00 | 0.00 | 47 | 1003.0 |
| 20260505173111 | 20 | 148 | 8.0 | 24.1 | 0.00 | 0.00 | 0.00 | 46 | 1002.9 |
| 20260505171611 | 21 | 166 | 11.3 | 30.6 | 0.00 | 0.00 | 0.00 | 46 | 1002.8 |
| 20260505170111 | 21 | 100 | 9.7 | 25.7 | 0.00 | 0.00 | 0.00 | 46 | 1002.9 |
| 20260505164611 | 21 | 125 | 9.7 | 30.6 | 0.00 | 0.00 | 0.00 | 44 | 1003.1 |
| 20260505163110 | 21 | 122 | 11.3 | 29.0 | 0.00 | 0.00 | 0.00 | 44 | 1003.4 |
| 20260505161610 | 22 | 132 | 11.3 | 32.2 | 0.00 | 0.00 | 0.00 | 43 | 1003.5 |
| 20260505160110 | 22 | 126 | 11.3 | 25.7 | 0.00 | 0.00 | 0.00 | 43 | 1003.5 |
| 20260505153117 | 23 | 163 | 12.9 | 43.5 | 0.00 | 0.00 | 0.00 | 41 | 1003.5 |
| 20260505151615 | 23 | 132 | 11.3 | 33.8 | 0.00 | 0.00 | 0.00 | 38 | 1003.5 |
| 20260505150114 | 25 | 131 | 12.9 | 32.2 | 0.00 | 0.00 | 0.00 | 35 | 1003.6 |
| 20260505140114 | 26 | 125 | 12.9 | 24.1 | 0.00 | 0.00 | 0.00 | 32 | 1003.8 |